Gadsden, AL

5:40 PM CDT on July 23, 2019 (GMT -0500)
Gadsden Municipal

Weather History for KGAD - May, 2019

Change the Weather History Date:

Wednesday, May 15, 2019

  Actual Average Record
Temperature  
Mean Temperature 60 °F -  
Max Temperature 73 °F 78 °F 91 °F (1944)
Min Temperature 46 °F 54 °F 42 °F (1948)
Degree Days  
Heating Degree Days 6    
Growing Degree Days 10 (Base 50)    
Moisture  
Dew Point 56 °F    
Average Humidity 83    
Maximum Humidity 100    
Minimum Humidity 48    
Precipitation  
Precipitation 0.01 in - - ()
Sea Level Pressure  
Sea Level Pressure 30.06 in    
Wind  
Wind Speed 1 mph ()    
Max Wind Speed 13 mph    
Max Gust Speed 24 mph    
Visibility 9.9 miles    
Events Rain    
Averages and records for this station are not official NWS values.
T = Trace of Precipitation, MM = Missing Value Source: Averaged Metar Reports

Daily Weather History Graph

Daily Weather History Graph

Search for Another Location

Airport or City:

Astronomy

May. 15, 2019 Rise Set
Actual Time 5:43 AM CDT 7:38 PM CDT
Civil Twilight 5:15 AM CDT 8:06 PM CDT
Nautical Twilight 4:42 AM CDT 8:39 PM CDT
Astronomical Twilight 4:06 AM CDT 9:15 PM CDT
Moon 4:21 PM CDT (5/15) 3:54 AM CDT (5/15)
Length of Visible Light 14h 50m
Length of Day
13h 55m
Waxing Gibbous, 87% of the Moon is Illuminated
May 15
Waxing Gibbous
May 18
Full
May 26
Last Quarter
Jun 3
New
Jun 10
First Quarter

Hourly Weather History & Observations

Time (CDT) Temp. Dew Point Humidity Pressure Visibility Wind Dir Wind Speed Gust Speed Precip Events Conditions
12:56 AM 52.0 °F 52.0 °F 100% 30.05 in 10.0 mi Calm Calm - N/A   Clear
1:56 AM 48.9 °F - N/A% 30.04 in 10.0 mi WSW 4.6 mph - N/A   Clear
2:56 AM 48.9 °F 48.9 °F 100% 30.04 in 10.0 mi Calm Calm - N/A   Clear
3:56 AM 46.9 °F 46.9 °F 100% 30.05 in 9.0 mi Calm Calm - N/A   Clear
4:56 AM 48.0 °F 48.0 °F 100% 30.06 in 10.0 mi Calm Calm - N/A   Clear
5:56 AM 46.9 °F 46.9 °F 100% 30.07 in 9.0 mi Calm Calm - N/A   Clear
6:56 AM 51.1 °F 51.1 °F 100% 30.09 in 9.0 mi Calm Calm - N/A   Clear
7:56 AM 55.9 °F 55.9 °F 100% 30.10 in 10.0 mi Calm Calm - N/A   Clear
8:56 AM 63.0 °F 55.0 °F 75% 30.10 in 10.0 mi Calm Calm - N/A   Clear
9:56 AM 66.9 °F 54.0 °F 63% 30.11 in 10.0 mi Calm Calm - N/A   Clear
11:45 AM 71.6 °F 53.6 °F 53% 30.09 in 10.0 mi Calm Calm - N/A   Partly Cloudy
11:56 AM 71.1 °F 54.0 °F 55% 30.10 in 10.0 mi NNW 5.8 mph - N/A   Partly Cloudy
12:56 PM 73.0 °F 52.0 °F 48% 30.09 in 10.0 mi Calm Calm - N/A   Clear
1:56 PM 72.0 °F 53.1 °F 51% 30.09 in 10.0 mi Calm Calm - N/A   Partly Cloudy
2:56 PM 64.0 °F 59.0 °F 84% 30.11 in 10.0 mi North 12.7 mph 24.2 mph 0.00 in Rain Light Rain
3:56 PM 68.0 °F 62.1 °F 81% 30.02 in 10.0 mi ENE 4.6 mph - 0.01 in   Clear
4:56 PM 71.1 °F 61.0 °F 70% 30.02 in 10.0 mi Calm Calm - N/A   Clear
5:56 PM 71.1 °F 62.1 °F 73% 30.02 in 10.0 mi Calm Calm - N/A   Scattered Clouds
6:56 PM 69.1 °F 62.1 °F 78% 30.02 in 10.0 mi ENE 4.6 mph - N/A   Scattered Clouds
7:56 PM 66.0 °F 61.0 °F 84% 30.02 in 10.0 mi ESE 3.5 mph - N/A   Mostly Cloudy
8:56 PM 64.9 °F 63.0 °F 93% 30.03 in 10.0 mi Calm Calm - N/A   Mostly Cloudy
9:56 PM 63.0 °F 63.0 °F 100% 30.05 in 10.0 mi Calm Calm - N/A   Mostly Cloudy
10:56 PM 62.1 °F 62.1 °F 100% 30.05 in 10.0 mi Calm Calm - N/A   Mostly Cloudy
11:56 PM 62.1 °F 62.1 °F 100% 30.04 in 10.0 mi NE 3.5 mph - N/A   Mostly Cloudy